{"data":{"norad_id":41898,"epoch":"2026-05-25T05:17:20.659200Z","epoch_age_seconds":46112,"freshness":"FRESH","line1":"1 41898U 16081A   26145.22037800  .00000360  00000+0  85539-4 0  9998","line2":"2 41898  98.5370 144.8008 0021169  23.6014 336.6151 14.59927843501276","mean_motion":14.59927843,"eccentricity":0.0021169,"inclination_deg":98.537,"raan_deg":144.8008,"arg_perigee_deg":23.6014,"mean_anomaly_deg":336.6151,"bstar":8.5539e-5,"rev_number":50127,"period_min":98.635011785305,"perigee_km":678.43723515304,"apogee_km":708.37673808358,"semimajor_km":7071.5439866183,"source":"CELESTRAK","updated_at":"2026-05-25T13:37:55.656563Z"}}